CZ-2D DEB, 44603

Orbit data source: Space-Track

CZ-2D DEB, 44603 is space debris in SSO originally from a launch on Fri, 11 Nov 2016 UTC launched from the Jiuquan Satellite Launch Center, China (JSC). Debris objects in space refer to the collection of defunct objects orbiting the Earth. Examples of debris include non-operational satellites, rocket bodies, and fragments generated from explosions, collisions, or faulty payload assembly.

Loading next visibility...
Identifier
44603, 2016-068C
Orbit
SSO
Country
Flag of CNCN / PRC
Related business
Manufacturer
Unknown
Mission
Spacecraft
Bus & Motor
Unknown
Mass
Unknown
Launch date (UTC)
2016-11-11 (9 years ago)
Launch vehicle
Unknown
Launch site
Jiuquan Satellite Launch Center, China (JSC)
Object type
Payload
Rocket body
Debris
Shape & HBR
Unknown shape, 0.1 m
Radar Cross Section
Small (<0.1 m²)

Expand to show TLE details & history
Last TLE update: 2 days ago

TLE from 2 days ago
0 CZ-2D DEB
1 44603U 16068C   25306.94609925  .00000665  00000-0  43845-3 0  9992
2 44603  98.5415 121.4496 0215470 143.0664 218.5558 13.94024272942600
Epoch: 2025-11-02T22:42Z
TLE epoch observation values (Epoch: 2025-11-02T22:42:22.975Z)
Latitude
0.00004°
Longitude
98.39933°
Altitude
1,041.637 km
Speed
7.268 km/s
True Right ascension
08h 05m 47s
True Declination
0° 00' 00"
Sunlit
Object was in daylight at epoch
Visualization orbit readout
Latitude
Unknown
Longitude
Unknown
Altitude
Unknown
Speed
Unknown
Apparent Right ascension
Unknown
Apparent Declination
Unknown
Sunlit
N/A
Visualization observer readout
Local Sidereal Time
06:59:26
Azimuth
Unknown
Elevation
Unknown
Doppler factor
Unknown
Orbital elements
Apogee altitude
1,068.821 km
Perigee altitude
754.67 km
Semi-major axis
7,289.883 km
Eccentricity
0.02155
Inclination
98.5415°
RAAN
121.4496°
Arg. of periapsis
143.0664°
True anomaly
217.04881°
Mean anomaly
218.5558°
Eccentric anomaly
217.79915°
Mean motion
3.48708 °/min
Orbital period
103.24 mins
BSTAR
0.00043845
Loading maneuver chart data...
Computing Atmospheric mass density...
Loading historical data...
Loading historical data...
Loading historical data...
Loading historical data...
Loading historical data...
Loading historical data...
Loading historical data...

Documentation

Showing up to 5 results
|